TimeEDT,TemperatureF,Dew PointF,Humidity,Sea Level PressureIn,VisibilityMPH,Wind Direction,Wind SpeedMPH,Gust SpeedMPH,PrecipitationIn,Events,Conditions,WindDirDegrees,DateUTC
12:15 AM,66.2,62.6,88,30.21,10.0,Calm,Calm,-,N/A,,Clear,0,2013-08-26 04:15:00
12:35 AM,66.2,62.6,88,30.20,10.0,NE,3.5,-,N/A,,Clear,50,2013-08-26 04:35:00
12:55 AM,64.4,62.6,94,30.20,10.0,Calm,Calm,-,N/A,,Clear,0,2013-08-26 04:55:00
1:15 AM,64.4,62.6,94,30.20,10.0,Calm,Calm,-,N/A,,Clear,0,2013-08-26 05:15:00
1:35 AM,64.4,62.6,94,30.20,10.0,Calm,Calm,-,N/A,,Clear,0,2013-08-26 05:35:00
1:55 AM,64.4,62.6,94,30.20,10.0,NNE,3.5,-,N/A,,Clear,20,2013-08-26 05:55:00
2:15 AM,64.4,62.6,94,30.19,10.0,Calm,Calm,-,N/A,,Clear,0,2013-08-26 06:15:00
2:35 AM,64.4,62.6,94,30.19,10.0,NNE,3.5,-,N/A,,Clear,30,2013-08-26 06:35:00
2:55 AM,64.4,62.6,94,30.18,10.0,NNE,3.5,-,N/A,,Clear,30,2013-08-26 06:55:00
3:15 AM,64.4,62.6,94,30.19,10.0,NE,3.5,-,N/A,,Clear,40,2013-08-26 07:15:00
3:35 AM,64.4,62.6,94,30.19,10.0,NE,4.6,-,N/A,,Clear,40,2013-08-26 07:35:00
3:55 AM,64.4,62.6,94,30.18,10.0,NE,3.5,-,N/A,,Clear,40,2013-08-26 07:55:00
4:15 AM,62.6,60.8,94,30.17,10.0,NE,3.5,-,N/A,,Clear,40,2013-08-26 08:15:00
4:35 AM,62.6,60.8,94,30.18,10.0,NE,3.5,-,N/A,,Clear,40,2013-08-26 08:35:00
4:55 AM,62.6,60.8,94,30.18,10.0,NE,3.5,-,N/A,,Clear,40,2013-08-26 08:55:00
5:15 AM,60.8,60.8,100,30.17,10.0,Calm,Calm,-,N/A,,Clear,0,2013-08-26 09:15:00
5:35 AM,62.6,60.8,94,30.18,10.0,Calm,Calm,-,N/A,,Clear,0,2013-08-26 09:35:00
5:55 AM,60.8,60.8,100,30.17,10.0,Calm,Calm,-,N/A,,Clear,0,2013-08-26 09:55:00
6:15 AM,60.8,60.8,100,30.18,10.0,Calm,Calm,-,N/A,,Clear,0,2013-08-26 10:15:00
6:35 AM,60.8,60.8,100,30.18,10.0,Calm,Calm,-,N/A,,Clear,0,2013-08-26 10:35:00
6:55 AM,62.6,60.8,94,30.18,10.0,Calm,Calm,-,N/A,,Clear,0,2013-08-26 10:55:00
7:15 AM,62.6,60.8,94,30.18,10.0,Calm,Calm,-,N/A,,Clear,0,2013-08-26 11:15:00
7:35 AM,62.6,60.8,94,30.20,10.0,Calm,Calm,-,N/A,,Clear,0,2013-08-26 11:35:00
7:55 AM,62.6,60.8,94,30.20,10.0,NE,4.6,-,N/A,,Clear,40,2013-08-26 11:55:00
8:15 AM,64.4,60.8,88,30.21,10.0,NE,4.6,-,N/A,,Clear,50,2013-08-26 12:15:00
8:35 AM,66.2,60.8,83,30.21,10.0,ENE,4.6,-,N/A,,Clear,60,2013-08-26 12:35:00
8:55 AM,68.0,62.6,83,30.22,10.0,ENE,4.6,-,N/A,,Clear,60,2013-08-26 12:55:00
9:15 AM,69.8,62.6,78,30.23,10.0,ENE,4.6,-,N/A,,Scattered Clouds,60,2013-08-26 13:15:00
9:35 AM,71.6,64.4,78,30.24,10.0,ENE,6.9,-,N/A,,Mostly Cloudy,70,2013-08-26 13:35:00
9:55 AM,73.4,64.4,73,30.24,10.0,East,6.9,-,N/A,,Scattered Clouds,80,2013-08-26 13:55:00
10:15 AM,75.2,64.4,69,30.26,10.0,East,6.9,-,N/A,,Scattered Clouds,80,2013-08-26 14:15:00
10:35 AM,75.2,64.4,69,30.26,10.0,ENE,8.1,-,N/A,,Clear,60,2013-08-26 14:35:00
10:55 AM,77.0,64.4,65,30.27,10.0,ENE,8.1,-,N/A,,Clear,70,2013-08-26 14:55:00
11:15 AM,77.0,62.6,61,30.27,10.0,East,11.5,-,N/A,,Clear,80,2013-08-26 15:15:00
11:35 AM,78.8,64.4,61,30.27,10.0,ENE,6.9,-,N/A,,Clear,60,2013-08-26 15:35:00
11:55 AM,78.8,64.4,61,30.27,10.0,NE,8.1,-,N/A,,Clear,40,2013-08-26 15:55:00
12:15 PM,78.8,64.4,61,30.27,10.0,NNE,6.9,-,N/A,,Clear,30,2013-08-26 16:15:00
12:35 PM,80.6,64.4,58,30.27,10.0,ENE,6.9,-,N/A,,Clear,70,2013-08-26 16:35:00
12:55 PM,80.6,64.4,58,30.27,10.0,NE,5.8,-,N/A,,Clear,50,2013-08-26 16:55:00
1:15 PM,80.6,62.6,54,30.26,10.0,East,4.6,-,N/A,,Clear,80,2013-08-26 17:15:00
1:35 PM,80.6,64.4,58,30.26,10.0,NE,8.1,-,N/A,,Clear,40,2013-08-26 17:35:00
1:55 PM,82.4,64.4,54,30.25,10.0,NNE,5.8,-,N/A,,Clear,20,2013-08-26 17:55:00
2:15 PM,82.4,62.6,51,30.24,10.0,NE,9.2,-,N/A,,Clear,50,2013-08-26 18:15:00
2:35 PM,82.4,62.6,51,30.23,10.0,NE,3.5,-,N/A,,Clear,50,2013-08-26 18:35:00
2:55 PM,82.4,62.6,51,30.22,10.0,NNE,8.1,-,N/A,,Clear,30,2013-08-26 18:55:00
3:15 PM,82.4,62.6,51,30.21,10.0,NNE,10.4,-,N/A,,Clear,20,2013-08-26 19:15:00
3:35 PM,82.4,60.8,48,30.20,10.0,NE,5.8,-,N/A,,Clear,50,2013-08-26 19:35:00
3:55 PM,82.4,60.8,48,30.20,10.0,ENE,4.6,-,N/A,,Clear,60,2013-08-26 19:55:00
4:15 PM,82.4,60.8,48,30.19,10.0,NNE,3.5,-,N/A,,Clear,20,2013-08-26 20:15:00
4:35 PM,82.4,60.8,48,30.19,10.0,NE,6.9,-,N/A,,Clear,50,2013-08-26 20:35:00
4:55 PM,82.4,62.6,51,30.18,10.0,NE,6.9,-,N/A,,Clear,40,2013-08-26 20:55:00
5:15 PM,82.4,62.6,51,30.18,10.0,ENE,4.6,-,N/A,,Clear,60,2013-08-26 21:15:00
5:35 PM,82.4,60.8,48,30.17,10.0,North,3.5,-,N/A,,Clear,350,2013-08-26 21:35:00
5:55 PM,82.4,60.8,48,30.17,10.0,Calm,Calm,-,N/A,,Clear,0,2013-08-26 21:55:00
6:15 PM,82.4,62.6,51,30.16,10.0,North,3.5,-,N/A,,Clear,360,2013-08-26 22:15:00
6:35 PM,82.4,62.6,51,30.16,10.0,NNE,4.6,-,N/A,,Clear,30,2013-08-26 22:35:00
6:55 PM,80.6,62.6,54,30.16,10.0,North,3.5,-,N/A,,Clear,360,2013-08-26 22:55:00
7:15 PM,80.6,62.6,54,30.15,10.0,Calm,Calm,-,N/A,,Clear,0,2013-08-26 23:15:00
7:35 PM,78.8,62.6,57,30.15,10.0,Calm,Calm,-,N/A,,Clear,0,2013-08-26 23:35:00
7:55 PM,77.0,66.2,69,30.15,10.0,North,3.5,-,N/A,,Clear,350,2013-08-26 23:55:00
8:15 PM,73.4,66.2,78,30.14,10.0,Calm,Calm,-,N/A,,Clear,0,2013-08-27 00:15:00
8:35 PM,73.4,66.2,78,30.14,10.0,Calm,Calm,-,N/A,,Clear,0,2013-08-27 00:35:00
8:55 PM,71.6,66.2,83,30.13,10.0,Calm,Calm,-,N/A,,Clear,0,2013-08-27 00:55:00
9:15 PM,71.6,68.0,88,30.14,10.0,Calm,Calm,-,N/A,,Clear,0,2013-08-27 01:15:00
9:35 PM,69.8,68.0,94,30.14,10.0,Calm,Calm,-,N/A,,Mostly Cloudy,0,2013-08-27 01:35:00
9:55 PM,71.6,68.0,88,30.14,10.0,Calm,Calm,-,N/A,,Overcast,0,2013-08-27 01:55:00
10:15 PM,71.6,68.0,88,30.14,10.0,Calm,Calm,-,N/A,,Overcast,0,2013-08-27 02:15:00
10:35 PM,69.8,66.2,88,30.14,10.0,Calm,Calm,-,N/A,,Scattered Clouds,0,2013-08-27 02:35:00
10:55 PM,69.8,64.4,83,30.14,10.0,Calm,Calm,-,N/A,,Scattered Clouds,0,2013-08-27 02:55:00
11:15 PM,68.0,64.4,88,30.14,10.0,Calm,Calm,-,N/A,,Mostly Cloudy,0,2013-08-27 03:15:00
11:35 PM,68.0,66.2,94,30.14,10.0,Calm,Calm,-,N/A,,Mostly Cloudy,0,2013-08-27 03:35:00
11:55 PM,68.0,66.2,94,30.14,10.0,Calm,Calm,-,N/A,,Mostly Cloudy,0,2013-08-27 03:55:00